SCP
0 0 0 0 0 0 0 0 0 0 0 0 0 0 0 0 0 0 0 0 0 0 0 0 0 0 0 0 0 0 0 0 0 0 0 0 0 0 0 0 0 0 0 0 0 0 0
0 0 0 0 0 0 0 0 0 0 0 0 0 0 0 0 0 0 0 0 0 0 0 0 0 0 0 0 0 0 0 0 0 0 0 0 0 0 0 0 0 0 0 0 0 0 0
0 0 0 0 0 0 0 0 0 0 0 0 0 0 0 0 0 0 0 0 0 0 0 0 0 0 0 0 0 -0 0 0 0 0 0 0 0 0 0 0 0 0 0 0 0 0 0
0 0 0 0 0 0 0 0 0 0 0 0 0 0 0 0 0 0 0 0 0 0 0 0 0 0 0 0 0 0 0 0 0 0 0 0 -0 0 0 0 0 0 0 0 0 0 0
0 0 0 0 0 0 0 0 0 0 0 0 0 0 0 0 0 0 0 0 0 0 0 0 0 0 0 0 0 0 0 0 0 0 0 0 0 0 0 0 0 0 0 0 0 0 0
0 0 0 0 0 0 0 0 0 0 0 0 0 0 0 0 0 0 0 -0 0 0 0 0 0 0 0 0 0 0 0 0 0 0 0 0 0 0 0 0 0 0 0 0 0 0 -0
0 0 0 0 0 0 0 0 0 0 0 0 0 0 0 0 0 0 0 0 0 0 0 0 0 0 0 0 0 0 0 0 0 0 0 0 0 0 0 0 0 0 0 0 0 -0 -0
0 0 0 0 0 0 0 0 0 0 0 0 0 0 0 0 0 0 0 0 0 0 0 0 0 0 0 0 0 0 0 0 0 0 0 0 0 0 0 0 0 0 0 0 -0 -0 0
0 0 0 0 0 0 0 0 0 0 0 0 0 0 0 0 0 0 0 0 0 0 0 0 0 0 0 0 0 -0 0 0 0 0 0 0 0 0 0 0 0 0 0 0 0 0 0
0 0 0 0 0 0 0 0 0 0 0 0 0 0 0 0 0 0 0 0 0 0 0 0 0 0 0 0 0 0 -0 0 0 0 0 0 0 0 0 0 0 0 0 0 0 0 0
0 0 0 0 0 0 0 0 0 0 0 0 0 0 0 0 0 0 0 0 0 0 0 0 0 0 0 0 0 0 -0 0 0 -0 0 0 0 -0 0 -0 0 0 0 0 0 0 0
0 0 0 0 0 0 0 0 0 0 0 0 0 0 0 0 0 0 0 0 0 0 0 0 0 0 0 -0 0 0 0 0 0 -0 -0 0 0 0 0 0 -0 0 -0 0 0 0 0
0 0 0 0 0 0 0 0 0 0 0 0 0 0 0 0 0 0 0 0 0 0 0 0 0 0 0 0 0 0 0 0 0 -0 -0 0 0 0 0 0 0 0 0 0 0 0 0
0 0 0 0 0 0 0 0 0 0 0 0 0 0 0 0 0 0 0 0 0 0 0 0 -0 -0 0 0 0 0 0 0 -0 0 0 0 0 0 0 0 0 0 0 0 0 0 0
0 0 0 0 0 0 0 0 0 0 0 0 0 0 0 0 0 0 0 0 0 0 0 0 0 -0 -0 0 0 0 0 0 0 -0 -0 0 0 0 0 0 0 0 0 0 0 0 0
0 0 0 0 0 0 0 0 0 0 0 0 0 0 0 0 0 0 0 0 0 -0 -0 0 0 0 -0 -0 0 0 0 0 -0 0 -0 0 0 0 -0 -0 0 0 0 0 0 0 0
0 0 0 0 0 0 0 0 0 0 0 0 0 0 0 0 0 0 0 0 0 -0 0 -0 -0 -0 0 0 0 0 0 0 0 0 0 0 0 0 0 0 0 0 0 0 0 0 0
0 0 0 0 0 0 0 0 0 0 0 0 0 0 0 0 0 0 0 0 -0 0 0 -0 -0 -0 -0 0 0 0 0 0 0 0 0 -0 0 0 0 0 0 0 0 0 0 0 0
0 0 0 0 0 0 0 0 0 0 0 0 0 0 0 0 0 0 0 0 0 -0 -0 -0 -0 -0 0 -0 0 0 0 0 0 0 0 0 0 0 0 0 0 0 0 0 0 0 0
0 0 0 0 0 0 0 0 0 0 0 0 0 0 0 0 0 0 0 0 0 0 -0 -0 -0 -0 0 0 0 -0 -0 0 0 0 0 0 0 0 0 0 0 0 0 0 0 0 0
0 0 0 0 0 0 0 0 0 0 0 0 0 0 0 0 -0 0 0 0 -0 -0 0 -0 -0 -0 -0 0 0 -0 0 0 0 0 0 0 0 0 -0 0 0 0 0 0 0 0 0
0 0 0 0 0 0 0 0 0 0 0 0 0 0 0 0 0 0 -0 0 0 -0 -0 -0 -0 -0 -0 0 -0 0 0 0 0 0 0 0 0 0 0 0 0 0 0 0 0 0 0
0 0 0 0 0 0 0 0 0 0 0 0 0 0 0 0 0 0 -0 0 -0 -0 -0 -0 -0 -0 -0 0 0 0 -0 -0 -0 0 0 0 0 0 -0 0 0 0 0 0 0 0 0
0 0 0 0 0 0 0 0 0 0 0 0 0 0 0 0 0 0 -0 0 0 -0 -0 -0 -0 -0 0 -0 -0 0 -0 0 -0 0 0 0 0 0 0 -0 0 0 0 0 0 0 0
0 0 0 0 0 0 0 0 0 0 0 0 0 0 0 0 0 0 -0 -0 -0 -0 0 -0 0 -0 0 0 0 0 0 0 -0 0 0 0 0 0 0 0 0 0 0 0 0 0 0
0 0 0 0 0 0 0 0 0 0 0 0 0 0 0 0 0 0 -0 0 0 -0 0 -0 -0 -0 0 0 0 0 0 0 0 0 0 0 0 0 0 0 0 0 0 0 0 0 0
0 0 0 0 0 0 0 0 0 0 0 0 0 0 0 0 0 0 0 0 0 -0 0 0 -0 -0 0 0 0 0 0 0 0 0 0 0 0 0 0 0 0 0 0 0 0 0 0
0 0 0 0 0 0 0 0 0 0 0 0 0 -0 0 0 0 -0 0 0 0 0 0 -0 -0 0 0 0 0 0 0 0 0 0 0 0 0 0 0 0 0 0 0 0 0 0 0
0 0 0 0 0 0 0 0 0 0 0 0 0 0 0 0 0 -0 -0 -0 -0 0 0 -0 -0 -0 0 0 0 0 0 0 0 0 0 0 0 0 0 0 0 0 0 0 0 0 0
Wind_Speed_500mb
32 33 35 35 36 38 39 37 38 39 41 44 42 40 42 45 48 49 49 50 50 49 48 48 43 45 44 13 75 40 30 42 38 25 45 53 51 47 27 32 44 39 30 54 62 64 66
38 38 37 35 36 36 39 40 41 42 45 45 44 43 45 47 50 52 52 52 53 53 53 50 47 36 21 37 49 20 13 40 48 34 42 55 37 57 31 44 31 24 50 50 57 59 59
39 40 38 37 36 37 39 39 43 44 45 46 45 47 49 51 54 56 58 56 55 53 50 55 51 31 35 94 30 17 26 43 49 44 46 49 63 47 55 20 63 56 36 26 42 35 20
39 40 42 42 42 41 43 44 44 46 47 50 52 55 57 58 58 61 62 65 58 51 58 54 36 19 34 61 50 54 45 44 46 37 40 36 50 66 65 46 44 25 22 29 18 17 23
48 47 47 46 47 49 49 48 48 50 52 55 56 58 63 64 62 63 63 69 60 52 46 21 12 19 31 22 38 21 46 44 34 40 48 40 55 63 50 22 12 20 23 18 20 16 13
49 50 51 50 51 52 54 55 55 56 57 58 59 58 61 62 63 62 62 68 59 35 15 6 13 14 36 26 19 18 10 52 45 40 42 54 46 21 22 16 33 14 14 17 24 32 42
50 50 52 53 53 52 53 54 55 56 57 57 58 58 58 59 62 58 61 68 6 7 21 28 34 39 60 37 46 13 26 42 39 52 30 43 16 36 32 28 14 22 29 27 32 42 34
52 51 51 51 51 52 54 55 56 57 58 59 58 57 59 60 61 53 51 28 33 28 41 54 78 91 98 69 52 47 34 34 44 35 29 29 47 26 22 25 33 36 40 39 31 31 22
53 52 51 51 51 52 54 55 56 57 58 60 59 59 61 62 62 41 17 37 42 55 34 74 95 85 86 71 72 73 51 51 21 35 35 42 13 32 37 38 41 43 42 31 27 35 8
55 53 53 53 53 54 55 57 58 59 60 62 62 61 62 66 44 19 41 36 38 30 10 22 15 16 35 58 36 72 59 49 21 40 35 35 33 40 46 46 41 38 41 39 39 30 9
54 55 54 54 53 54 55 58 61 64 65 66 66 63 62 59 68 67 41 29 16 23 11 20 8 16 14 43 7 57 62 49 36 37 34 35 34 48 42 47 41 36 33 34 39 17 5
55 55 54 54 54 55 57 60 62 65 68 70 67 66 69 71 58 50 4 25 24 6 16 8 11 17 18 45 45 7 46 49 44 34 35 30 32 35 37 39 48 38 31 32 19 6 10
55 55 55 55 55 56 57 60 64 68 71 73 72 71 69 61 53 13 16 17 6 12 18 6 12 10 3 7 4 5 16 34 26 29 27 22 30 20 31 33 21 33 16 8 6 14 16
53 53 54 54 55 56 58 63 66 70 76 80 78 75 67 52 18 2 21 6 16 19 29 12 13 10 20 12 13 12 14 10 41 25 11 20 12 38 24 26 17 19 14 8 12 9 7
52 52 53 55 56 58 60 63 67 70 75 80 80 71 52 6 11 17 10 12 9 15 31 36 51 11 6 33 7 4 15 24 25 31 19 4 12 12 35 34 29 14 19 13 4 12 9
51 52 55 57 58 60 62 64 67 70 72 75 81 57 28 7 19 34 15 25 25 46 53 50 36 14 15 12 17 18 19 12 23 33 30 4 14 30 31 37 40 17 12 21 6 1 11
50 52 55 56 58 59 62 63 64 68 70 72 59 30 8 7 16 11 8 15 34 59 26 17 21 19 27 16 8 12 10 9 22 27 26 3 7 15 13 34 23 19 30 13 11 14 11
51 53 54 54 55 58 61 62 60 62 70 65 31 9 12 10 5 10 10 19 45 51 53 10 17 25 5 26 10 12 11 14 10 14 6 35 10 6 10 30 29 25 12 14 9 5 4
49 51 53 53 51 54 57 57 56 55 55 69 33 21 25 26 5 11 23 34 40 22 13 12 10 4 5 9 12 12 14 14 15 3 4 22 10 2 14 15 13 12 5 2 10 8 12
49 52 52 51 51 49 50 53 54 52 43 52 16 9 20 33 24 16 27 33 42 53 20 7 19 9 15 16 17 10 15 10 22 5 21 15 8 9 9 4 6 9 4 10 1 7 9
50 53 52 51 50 47 47 50 52 50 43 27 8 9 28 13 27 40 35 33 40 26 24 7 2 13 5 11 20 10 14 8 8 8 12 8 11 17 16 1 8 7 7 6 8 4 5
52 53 50 48 47 45 44 44 45 48 49 21 14 11 22 45 34 32 19 21 37 44 35 10 8 14 20 16 31 6 8 11 9 20 19 9 4 9 6 8 16 4 11 33 16 5 5
49 50 50 50 49 46 43 42 42 44 44 23 33 40 21 20 19 24 8 27 43 40 26 4 3 12 30 4 31 13 31 4 20 20 7 8 10 11 11 19 19 7 18 17 12 14 18
48 49 51 52 50 48 44 41 37 36 33 33 38 41 13 14 18 24 44 40 44 42 34 29 3 4 19 65 66 30 29 8 18 14 15 5 3 3 11 25 8 7 12 7 19 21 25
47 48 51 52 53 48 40 39 37 35 33 38 38 31 12 12 25 35 38 37 50 47 31 18 35 10 25 43 7 8 3 6 16 13 10 10 6 6 8 5 15 18 14 9 20 30 27
47 47 50 53 54 50 41 39 38 36 34 41 42 30 34 15 8 41 38 33 22 19 17 14 51 40 18 10 6 6 7 10 7 6 10 10 9 8 5 5 5 9 11 22 5 13 15
47 46 48 51 52 51 45 39 41 36 35 39 46 30 39 24 29 29 17 28 35 22 11 9 29 21 15 6 5 3 6 4 2 10 6 6 7 5 6 5 8 4 12 20 11 5 28
47 48 47 49 51 51 49 43 40 38 38 40 49 39 34 27 53 64 46 36 41 36 10 22 19 6 7 6 7 7 6 4 8 11 13 7 7 2 4 6 6 15 18 9 14 33 37
48 48 47 49 50 51 52 49 44 38 38 42 48 42 41 42 50 71 72 48 41 44 52 9 5 25 7 6 4 6 7 2 6 3 9 5 5 9 8 5 14 41 43 44 43 41 33
Wind_Direction_500mb
353 350 346 343 341 338 337 336 335 333 331 331 330 327 327 327 325 324 322 319 316 311 307 305 303 306 313 268 257 245 251 292 297 257 219 214 226 234 239 222 237 241 247 242 244 248 261
355 352 350 347 342 338 334 336 332 331 330 328 327 326 324 324 322 321 320 318 315 312 311 307 302 301 288 257 287 268 284 253 261 248 232 214 217 217 252 231 219 247 238 250 249 244 254
352 349 347 344 340 335 332 330 327 328 327 326 325 322 320 320 319 317 316 314 310 309 306 301 295 290 262 255 265 241 237 222 244 252 235 230 211 225 232 263 235 243 258 249 238 240 252
347 343 340 339 334 333 331 329 326 324 323 320 319 317 316 315 314 312 312 309 307 307 299 293 293 250 253 281 291 257 214 230 223 237 233 223 218 235 250 250 254 249 249 249 254 213 225
347 344 340 336 334 332 330 328 325 322 321 319 317 313 310 309 310 310 310 304 306 302 287 294 253 237 263 302 273 283 225 221 219 227 224 232 229 231 247 245 264 242 243 254 254 242 227
344 341 339 338 336 333 331 330 327 326 324 321 321 319 313 311 312 317 312 308 315 271 268 272 225 241 258 253 281 272 252 210 230 219 227 232 238 226 235 209 221 234 230 243 249 234 233
344 341 339 337 335 334 333 330 327 325 325 324 324 324 320 317 315 323 315 318 338 322 196 216 235 223 265 278 301 236 220 208 225 236 206 228 218 223 217 227 235 258 245 235 231 239 235
346 343 341 338 336 335 334 332 330 329 328 326 328 326 322 320 315 318 306 287 288 298 294 267 263 251 259 259 277 270 208 183 219 225 191 221 227 221 234 229 233 244 250 257 278 268 209
347 345 344 341 339 338 337 335 333 332 331 329 329 327 324 320 322 319 300 289 330 313 276 280 259 251 247 234 240 254 202 197 210 225 198 218 227 216 236 227 225 232 243 254 254 280 230
347 347 345 343 342 341 339 337 336 334 331 328 328 326 324 321 325 292 283 312 303 344 289 285 233 247 225 215 223 229 239 190 221 222 223 219 228 224 220 236 228 230 229 247 259 269 229
348 346 344 343 342 341 339 338 336 334 332 329 328 324 322 318 307 301 320 302 336 333 288 279 99 159 173 180 46 199 219 190 209 233 205 226 204 232 220 225 238 242 243 235 246 265 288
346 345 344 343 343 342 341 339 338 337 335 331 330 324 320 313 301 319 345 343 333 254 249 262 37 348 354 192 220 156 212 204 212 232 258 238 237 235 236 234 218 243 241 245 223 220 281
345 344 344 344 344 344 342 341 340 338 335 332 328 323 315 302 291 324 259 283 242 230 295 17 10 321 319 251 156 102 209 213 205 207 245 272 250 248 261 279 230 230 217 224 191 207 229
343 343 344 344 344 343 342 340 339 338 335 333 329 326 318 304 291 262 218 236 234 255 240 357 97 63 301 247 191 157 140 221 249 137 259 206 215 213 234 229 239 219 173 169 188 194 222
341 342 343 342 342 340 339 338 338 337 335 333 331 332 324 348 270 166 222 248 257 243 267 295 317 327 167 271 273 166 175 206 256 201 211 181 269 285 225 240 237 217 234 211 121 96 4
339 339 339 340 340 339 337 337 338 338 337 337 336 337 342 105 177 167 208 241 275 296 297 311 318 207 225 264 230 168 185 232 240 259 225 140 273 254 236 211 245 215 181 222 124 59 180
337 337 337 338 338 339 339 338 338 345 342 342 345 322 285 186 154 194 237 254 273 276 302 321 307 288 317 229 183 172 146 242 213 296 204 134 134 296 317 215 203 186 213 193 166 176 199
338 338 336 336 338 340 341 344 342 347 346 348 352 302 163 298 249 233 254 278 314 313 330 309 292 264 213 279 180 198 202 153 73 323 258 217 166 249 277 313 322 304 185 161 123 223 155
338 338 338 338 339 338 340 344 343 347 352 344 321 276 347 6 276 308 310 311 312 288 339 313 276 243 296 245 257 185 200 205 144 309 247 177 178 177 319 355 321 276 201 314 132 114 181
336 336 337 337 338 340 344 345 344 344 352 342 319 308 333 319 322 316 312 312 325 309 293 261 287 348 347 297 229 220 201 165 163 205 302 325 146 174 210 172 263 202 69 32 116 123 151
334 335 335 335 338 340 345 347 345 348 352 346 283 310 4 316 331 317 318 320 332 348 329 39 29 22 161 292 272 237 176 113 109 264 311 340 151 144 178 149 301 75 86 14 318 20 133
334 333 333 333 333 334 336 343 346 346 347 351 315 331 328 301 305 307 9 344 330 329 312 335 338 308 312 254 279 206 47 165 161 201 216 243 110 111 93 190 231 219 218 171 229 138 83
333 333 335 336 333 330 330 334 341 346 350 340 324 326 315 289 310 322 353 315 333 335 307 352 295 355 331 256 323 244 222 295 132 153 139 125 164 189 152 155 199 278 215 191 183 163 103
330 333 334 334 334 329 327 329 330 337 339 321 310 318 297 292 307 312 318 340 336 333 325 340 341 350 287 308 315 257 225 132 121 80 83 249 26 79 107 168 182 135 67 169 184 164 153
329 331 332 333 334 331 327 327 325 322 327 318 307 312 285 285 302 298 315 332 324 333 337 338 353 255 322 312 271 140 147 140 114 116 90 59 350 44 106 158 134 38 20 35 97 33 75
325 327 329 331 335 336 328 325 323 321 322 318 303 308 299 296 248 309 311 315 323 324 325 333 345 324 294 274 265 191 171 148 131 48 347 71 18 101 58 79 95 184 30 8 74 68 17
321 322 324 327 331 330 330 327 321 317 319 317 297 307 307 282 283 298 308 309 318 319 305 322 334 326 308 296 305 291 68 105 162 126 177 69 25 69 39 91 71 89 36 341 75 160 69
321 319 319 321 326 328 327 323 319 315 314 319 301 302 303 280 284 281 284 301 302 305 303 316 332 1 300 320 26 307 84 137 280 116 129 128 116 195 18 85 122 338 30 65 129 94 85
318 318 317 318 321 326 326 324 316 314 311 318 312 300 307 290 275 290 290 289 279 275 273 246 256 304 322 306 35 340 341 65 341 98 128 111 153 161 138 165 98 88 107 124 112 111 102
Wind_Speed_850mb
32 33 35 35 36 38 39 37 38 39 41 44 42 40 42 45 48 49 49 50 50 49 48 48 43 45 44 13 75 40 30 42 38 25 45 53 51 47 27 32 44 39 30 54 62 64 66
38 38 37 35 36 36 39 40 41 42 45 45 44 43 45 47 50 52 52 52 53 53 53 50 47 36 21 37 49 20 13 40 48 34 42 55 37 57 31 44 31 24 50 50 57 59 59
39 40 38 37 36 37 39 39 43 44 45 46 45 47 49 51 54 56 58 56 55 53 50 55 51 31 35 94 30 17 26 43 49 44 46 49 63 47 55 20 63 56 36 26 42 35 20
39 40 42 42 42 41 43 44 44 46 47 50 52 55 57 58 58 61 62 65 58 51 58 54 36 19 34 61 50 54 45 44 46 37 40 36 50 66 65 46 44 25 22 29 18 17 23
48 47 47 46 47 49 49 48 48 50 52 55 56 58 63 64 62 63 63 69 60 52 46 21 12 19 31 22 38 21 46 44 34 40 48 40 55 63 50 22 12 20 23 18 20 16 13
49 50 51 50 51 52 54 55 55 56 57 58 59 58 61 62 63 62 62 68 59 35 15 6 13 14 36 26 19 18 10 52 45 40 42 54 46 21 22 16 33 14 14 17 24 32 42
50 50 52 53 53 52 53 54 55 56 57 57 58 58 58 59 62 58 61 68 6 7 21 28 34 39 60 37 46 13 26 42 39 52 30 43 16 36 32 28 14 22 29 27 32 42 34
52 51 51 51 51 52 54 55 56 57 58 59 58 57 59 60 61 53 51 28 33 28 41 54 78 91 98 69 52 47 34 34 44 35 29 29 47 26 22 25 33 36 40 39 31 31 22
53 52 51 51 51 52 54 55 56 57 58 60 59 59 61 62 62 41 17 37 42 55 34 74 95 85 86 71 72 73 51 51 21 35 35 42 13 32 37 38 41 43 42 31 27 35 8
55 53 53 53 53 54 55 57 58 59 60 62 62 61 62 66 44 19 41 36 38 30 10 22 15 16 35 58 36 72 59 49 21 40 35 35 33 40 46 46 41 38 41 39 39 30 9
54 55 54 54 53 54 55 58 61 64 65 66 66 63 62 59 68 67 41 29 16 23 11 20 8 16 14 43 7 57 62 49 36 37 34 35 34 48 42 47 41 36 33 34 39 17 5
55 55 54 54 54 55 57 60 62 65 68 70 67 66 69 71 58 50 4 25 24 6 16 8 11 17 18 45 45 7 46 49 44 34 35 30 32 35 37 39 48 38 31 32 19 6 10
55 55 55 55 55 56 57 60 64 68 71 73 72 71 69 61 53 13 16 17 6 12 18 6 12 10 3 7 4 5 16 34 26 29 27 22 30 20 31 33 21 33 16 8 6 14 16
53 53 54 54 55 56 58 63 66 70 76 80 78 75 67 52 18 2 21 6 16 19 29 12 13 10 20 12 13 12 14 10 41 25 11 20 12 38 24 26 17 19 14 8 12 9 7
52 52 53 55 56 58 60 63 67 70 75 80 80 71 52 6 11 17 10 12 9 15 31 36 51 11 6 33 7 4 15 24 25 31 19 4 12 12 35 34 29 14 19 13 4 12 9
51 52 55 57 58 60 62 64 67 70 72 75 81 57 28 7 19 34 15 25 25 46 53 50 36 14 15 12 17 18 19 12 23 33 30 4 14 30 31 37 40 17 12 21 6 1 11
50 52 55 56 58 59 62 63 64 68 70 72 59 30 8 7 16 11 8 15 34 59 26 17 21 19 27 16 8 12 10 9 22 27 26 3 7 15 13 34 23 19 30 13 11 14 11
51 53 54 54 55 58 61 62 60 62 70 65 31 9 12 10 5 10 10 19 45 51 53 10 17 25 5 26 10 12 11 14 10 14 6 35 10 6 10 30 29 25 12 14 9 5 4
49 51 53 53 51 54 57 57 56 55 55 69 33 21 25 26 5 11 23 34 40 22 13 12 10 4 5 9 12 12 14 14 15 3 4 22 10 2 14 15 13 12 5 2 10 8 12
49 52 52 51 51 49 50 53 54 52 43 52 16 9 20 33 24 16 27 33 42 53 20 7 19 9 15 16 17 10 15 10 22 5 21 15 8 9 9 4 6 9 4 10 1 7 9
50 53 52 51 50 47 47 50 52 50 43 27 8 9 28 13 27 40 35 33 40 26 24 7 2 13 5 11 20 10 14 8 8 8 12 8 11 17 16 1 8 7 7 6 8 4 5
52 53 50 48 47 45 44 44 45 48 49 21 14 11 22 45 34 32 19 21 37 44 35 10 8 14 20 16 31 6 8 11 9 20 19 9 4 9 6 8 16 4 11 33 16 5 5
49 50 50 50 49 46 43 42 42 44 44 23 33 40 21 20 19 24 8 27 43 40 26 4 3 12 30 4 31 13 31 4 20 20 7 8 10 11 11 19 19 7 18 17 12 14 18
48 49 51 52 50 48 44 41 37 36 33 33 38 41 13 14 18 24 44 40 44 42 34 29 3 4 19 65 66 30 29 8 18 14 15 5 3 3 11 25 8 7 12 7 19 21 25
47 48 51 52 53 48 40 39 37 35 33 38 38 31 12 12 25 35 38 37 50 47 31 18 35 10 25 43 7 8 3 6 16 13 10 10 6 6 8 5 15 18 14 9 20 30 27
47 47 50 53 54 50 41 39 38 36 34 41 42 30 34 15 8 41 38 33 22 19 17 14 51 40 18 10 6 6 7 10 7 6 10 10 9 8 5 5 5 9 11 22 5 13 15
47 46 48 51 52 51 45 39 41 36 35 39 46 30 39 24 29 29 17 28 35 22 11 9 29 21 15 6 5 3 6 4 2 10 6 6 7 5 6 5 8 4 12 20 11 5 28
47 48 47 49 51 51 49 43 40 38 38 40 49 39 34 27 53 64 46 36 41 36 10 22 19 6 7 6 7 7 6 4 8 11 13 7 7 2 4 6 6 15 18 9 14 33 37
48 48 47 49 50 51 52 49 44 38 38 42 48 42 41 42 50 71 72 48 41 44 52 9 5 25 7 6 4 6 7 2 6 3 9 5 5 9 8 5 14 41 43 44 43 41 33
Wind_Direction_850mb
353 350 346 343 341 338 337 336 335 333 331 331 330 327 327 327 325 324 322 319 316 311 307 305 303 306 313 268 257 245 251 292 297 257 219 214 226 234 239 222 237 241 247 242 244 248 261
355 352 350 347 342 338 334 336 332 331 330 328 327 326 324 324 322 321 320 318 315 312 311 307 302 301 288 257 287 268 284 253 261 248 232 214 217 217 252 231 219 247 238 250 249 244 254
352 349 347 344 340 335 332 330 327 328 327 326 325 322 320 320 319 317 316 314 310 309 306 301 295 290 262 255 265 241 237 222 244 252 235 230 211 225 232 263 235 243 258 249 238 240 252
347 343 340 339 334 333 331 329 326 324 323 320 319 317 316 315 314 312 312 309 307 307 299 293 293 250 253 281 291 257 214 230 223 237 233 223 218 235 250 250 254 249 249 249 254 213 225
347 344 340 336 334 332 330 328 325 322 321 319 317 313 310 309 310 310 310 304 306 302 287 294 253 237 263 302 273 283 225 221 219 227 224 232 229 231 247 245 264 242 243 254 254 242 227
344 341 339 338 336 333 331 330 327 326 324 321 321 319 313 311 312 317 312 308 315 271 268 272 225 241 258 253 281 272 252 210 230 219 227 232 238 226 235 209 221 234 230 243 249 234 233
344 341 339 337 335 334 333 330 327 325 325 324 324 324 320 317 315 323 315 318 338 322 196 216 235 223 265 278 301 236 220 208 225 236 206 228 218 223 217 227 235 258 245 235 231 239 235
346 343 341 338 336 335 334 332 330 329 328 326 328 326 322 320 315 318 306 287 288 298 294 267 263 251 259 259 277 270 208 183 219 225 191 221 227 221 234 229 233 244 250 257 278 268 209
347 345 344 341 339 338 337 335 333 332 331 329 329 327 324 320 322 319 300 289 330 313 276 280 259 251 247 234 240 254 202 197 210 225 198 218 227 216 236 227 225 232 243 254 254 280 230
347 347 345 343 342 341 339 337 336 334 331 328 328 326 324 321 325 292 283 312 303 344 289 285 233 247 225 215 223 229 239 190 221 222 223 219 228 224 220 236 228 230 229 247 259 269 229
348 346 344 343 342 341 339 338 336 334 332 329 328 324 322 318 307 301 320 302 336 333 288 279 99 159 173 180 46 199 219 190 209 233 205 226 204 232 220 225 238 242 243 235 246 265 288
346 345 344 343 343 342 341 339 338 337 335 331 330 324 320 313 301 319 345 343 333 254 249 262 37 348 354 192 220 156 212 204 212 232 258 238 237 235 236 234 218 243 241 245 223 220 281
345 344 344 344 344 344 342 341 340 338 335 332 328 323 315 302 291 324 259 283 242 230 295 17 10 321 319 251 156 102 209 213 205 207 245 272 250 248 261 279 230 230 217 224 191 207 229
343 343 344 344 344 343 342 340 339 338 335 333 329 326 318 304 291 262 218 236 234 255 240 357 97 63 301 247 191 157 140 221 249 137 259 206 215 213 234 229 239 219 173 169 188 194 222
341 342 343 342 342 340 339 338 338 337 335 333 331 332 324 348 270 166 222 248 257 243 267 295 317 327 167 271 273 166 175 206 256 201 211 181 269 285 225 240 237 217 234 211 121 96 4
339 339 339 340 340 339 337 337 338 338 337 337 336 337 342 105 177 167 208 241 275 296 297 311 318 207 225 264 230 168 185 232 240 259 225 140 273 254 236 211 245 215 181 222 124 59 180
337 337 337 338 338 339 339 338 338 345 342 342 345 322 285 186 154 194 237 254 273 276 302 321 307 288 317 229 183 172 146 242 213 296 204 134 134 296 317 215 203 186 213 193 166 176 199
338 338 336 336 338 340 341 344 342 347 346 348 352 302 163 298 249 233 254 278 314 313 330 309 292 264 213 279 180 198 202 153 73 323 258 217 166 249 277 313 322 304 185 161 123 223 155
338 338 338 338 339 338 340 344 343 347 352 344 321 276 347 6 276 308 310 311 312 288 339 313 276 243 296 245 257 185 200 205 144 309 247 177 178 177 319 355 321 276 201 314 132 114 181
336 336 337 337 338 340 344 345 344 344 352 342 319 308 333 319 322 316 312 312 325 309 293 261 287 348 347 297 229 220 201 165 163 205 302 325 146 174 210 172 263 202 69 32 116 123 151
334 335 335 335 338 340 345 347 345 348 352 346 283 310 4 316 331 317 318 320 332 348 329 39 29 22 161 292 272 237 176 113 109 264 311 340 151 144 178 149 301 75 86 14 318 20 133
334 333 333 333 333 334 336 343 346 346 347 351 315 331 328 301 305 307 9 344 330 329 312 335 338 308 312 254 279 206 47 165 161 201 216 243 110 111 93 190 231 219 218 171 229 138 83
333 333 335 336 333 330 330 334 341 346 350 340 324 326 315 289 310 322 353 315 333 335 307 352 295 355 331 256 323 244 222 295 132 153 139 125 164 189 152 155 199 278 215 191 183 163 103
330 333 334 334 334 329 327 329 330 337 339 321 310 318 297 292 307 312 318 340 336 333 325 340 341 350 287 308 315 257 225 132 121 80 83 249 26 79 107 168 182 135 67 169 184 164 153
329 331 332 333 334 331 327 327 325 322 327 318 307 312 285 285 302 298 315 332 324 333 337 338 353 255 322 312 271 140 147 140 114 116 90 59 350 44 106 158 134 38 20 35 97 33 75
325 327 329 331 335 336 328 325 323 321 322 318 303 308 299 296 248 309 311 315 323 324 325 333 345 324 294 274 265 191 171 148 131 48 347 71 18 101 58 79 95 184 30 8 74 68 17
321 322 324 327 331 330 330 327 321 317 319 317 297 307 307 282 283 298 308 309 318 319 305 322 334 326 308 296 305 291 68 105 162 126 177 69 25 69 39 91 71 89 36 341 75 160 69
321 319 319 321 326 328 327 323 319 315 314 319 301 302 303 280 284 281 284 301 302 305 303 316 332 1 300 320 26 307 84 137 280 116 129 128 116 195 18 85 122 338 30 65 129 94 85
318 318 317 318 321 326 326 324 316 314 311 318 312 300 307 290 275 290 290 289 279 275 273 246 256 304 322 306 35 340 341 65 341 98 128 111 153 161 138 165 98 88 107 124 112 111 102